www.pogodaiklimat.ru

Погода и климат >> Архив погоды >> Россия >> Самарская область >> Самара


АРХИВ ПОГОДЫ в Самаре

Время (UTC), дата Ветер
(напр.,м/с)
 
Видим.   Явления Облачность Т
(С)
Тd
(С)
f
(%)
Тe
(С)
Тes
(С)
Комфортность P
(гПа)
Po
(гПа)
Тmin
(С)
Tmax
(С)
R
(мм)
R24
(мм)
S
(см)
06 22.04 ЮВ 2 10 км 10/0
[Ac und]
+3.3 -1.2 72 +1 +3 1010.1 992.8
09 22.04 В 3 н/о н/о +0.8 +0.8 100 -4 -4 1007.8 990.5
12 22.04 В 4 2000 м ливневой снег 10/10 300 м
[Cb cap]
+0.2 +0.2 100 -6 -6 1003.2 985.9
15 22.04 В 1
{10}
2000 м ливневой снег 10/10 300 м
[Cb cap]
+0.2 +0.2 100 -2 -2 1000.5 983.2 +3.4 12
18 22.04 СЗ 1 500 м туман {ливн. осадки} ?/? +0.1 +0.1 100 -2 -2 1000.5 983.2
21 22.04 З 3 4000 м в посл. час туман {снег} 10/10 200 м
[St]
+0.4 +0.4 100 -4 -4 1001.8 984.5
00 23.04 З 2 10 км {снег, туман} 10/10 300 м
[Sc]
+0.3 +0.3 100 -4 -4 1004.2 986.9
03 23.04 ЮЗ 1 10 км 10/6 600 м
[Sc Ac und]
+1.1 +1.1 100 -1 -1 1005.3 988.0 0.0 3 1
06 23.04 ЮЗ 2 10 км 10/8 600 м
[Sc Ac trans]
+3.4 +2.2 92 0 +1 1007.1 989.9
09 23.04 З 4 10 км 8/8 600 м
[Sc]
+10.0 +4.2 67 +8 +9 1007.9 991.2
12 23.04 ЮЗ 3 10 км 8/6 600 м
[Sc Ci fib]
+12.8 +2.1 48 +12 +14 1008.3 991.7
15 23.04 ЮЗ 3 10 км 8/3 600 м
[Sc Ac trans Ci fib]
+11.8 +3.1 55 +10 +11 1009.3 992.7 +13.4
18 23.04 Ю 2 10 км 8/0
[Ci fib]
+9.6 +5.7 77 +8 +8 1010.0 993.2
21 23.04 В 1 10 км 10/0
[Ci fib]
+8.5 +5.7 83 +8 +8 1010.4 993.5
00 24.04 штиль 0 4000 м ливневой дождь 10/10 600 м
[Cb cap]
+7.7 +7.7 100 +7 +7 1009.4 992.5
03 24.04 В 3 4000 м ливневой дождь {туман} 10/10 600 м
[Cb cap]
+7.0 +7.0 100 +4 +4 1006.2 989.3 +6.9 6
06 24.04 В 2 10 км слабый дождь {ливн. осадки} 10/10 200 м
[Frnb Ns]
+7.3 +7.3 100 +5 +5 1002.1 985.3
09 24.04 В 4
{10}
10 км слабый дождь 10/10 300 м
[Frnb Ns]
+8.1 +6.5 90 +5 +5 997.4 980.7
12 24.04 ЮВ 2 10 км слабый дождь 10/10 300 м
[Frnb Ns]
+9.2 +7.8 91 +7 +7 994.9 978.3
15 24.04 ЮЗ 3 10 км слабый ливневой дождь 10/10 600 м
[Cb cap]
+10.0 +7.9 87 +8 +8 995.0 978.4 +10.4 6
18 24.04 З 3 10 км {ливн. осадки, дождь} 10/10 600 м
[Sc]
+7.4 +6.8 96 +4 +4 997.5 980.7
21 24.04 З 5
{10}
10 км 10/10 660 м
[Sc]
+3.1 +1.1 87 -2 -2 1004.1 987.0
00 25.04 З 3
{10}
10 км 3/3 600 м
[Sc]
+2.7 +0.6 86 -1 -1 1008.0 990.7
03 25.04 ЮЗ 2 10 км 10/3 600 м
[Sc Ci fib]
+2.9 +0.6 85 -0 +1 1011.7 994.5 +2.2 2
06 25.04 З 2 10 км 6/0
[Ci fib]
+6.6 +1.5 70 +5 +13 1014.7 997.6
09 25.04 З 3 10 км 8/6 300 м
[Cu med, cong Ci fib]
+10.8 +1.0 51 +9 +13 1015.5 998.6
12 25.04 ЮЗ 3 10 км 9/8 600 м
[Cb calv Ci fib]
+10.9 -3.4 36 +10 +11 1016.1 999.2
15 25.04 ЮЗ 2 10 км 9/5 600 м
[Sc diur, vesp Ci fib]
+9.3 +0.1 53 +8 +8 1017.4 1000.4 +11.6
18 25.04 З 2 10 км ясно +6.6 +1.4 69 +5 +5 1019.1 1002.0
21 25.04 СЗ 1 10 км ясно +4.9 +1.3 77 +4 +4 1019.5 1002.2
00 26.04 СЗ 2 10 км 9/0
[Ac trans Ci fib]
+3.3 +0.9 84 0 0 1021.5 1004.1
03 26.04 СЗ 1 10 км ясно +3.7 +1.2 84 +2 +4 1023.9 1006.5 +2.9
06 26.04 СЗ 1 10 км 3/3 600 м
[Cu hum]
+7.9 +1.1 62 +7 +15 1025.1 1007.9
09 26.04 С 2 10 км 4/4 600 м
[Cu hum]
+11.5 -1.1 42 +11 +19 1025.7 1008.7
12 26.04 З 2 10 км 3/3 600 м
[Cu hum]
+12.9 -5.8 27 +13 +18 1026.1 1009.2
15 26.04 ЮЗ 2 10 км 3/0
[Ci fib]
+12.8 -7.0 25 +13 +13 1026.3 1009.3 +13.7
18 26.04 Ю 2 10 км ясно +11.1 -3.2 37 +10 +10 1026.8 1009.8
21 26.04 ЮЗ 1 10 км ясно +9.0 +0.1 54 +9 +9 1027.4 1010.2
00 27.04 ЮЗ 2 10 км ясно +8.4 +1.2 60 +7 +7 1027.8 1010.6
03 27.04 ЮЗ 2 10 км 9/0
[Ci fib]
+9.1 +2.3 62 +8 +9 1028.8 1011.6 +7.6
06 27.04 З 3 10 км 8/0
[Ci fib]
+12.9 +3.7 54 +12 +18 1028.7 1011.8
09 27.04 ЮЗ 4
{12}
10 км 8/3 600 м
[Sc Ci fib]
+16.0 +3.3 43 +15 +21 1028.2 1011.4
12 27.04 З 6-12
{13}
10 км 8/0
[Ci fib]
+17.3 +0.5 32 +17 +19 1027.2 1010.5
15 27.04 ЮЗ 3
{12}
10 км 8/0
[Ac trans Ci fib]
+16.4 +0.6 34 +16 +17 1026.5 1009.8 +17.5
18 27.04 ЮЗ 3
{11}
10 км ясно +14.2 +0.1 38 +14 +14 1027.3 1010.4
21 27.04 З 3 10 км ясно +12.8 -1.1 38 +12 +12 1027.6 1010.7
00 28.04 З 4 10 км ясно +10.8 +0.6 49 +9 +9 1027.6 1010.6
03 28.04 З 3 10 км 3/0
[Ci fib]
+9.9 +1.3 55 +8 +9 1028.5 1011.4 +9.0
06 28.04 З 3 10 км 9/0
[Ci fib]
+14.3 +1.2 41 +14 +20 1028.0 1011.1
09 28.04 З 4
{13}
10 км 8/0
[Ci fib]
+17.9 +0.5 31 +18 +26 1026.9 1010.3
12 28.04 ЮЗ 4
{12}
10 км 8/0
[Ci fib]
+20.1 +1.2 28 +20 +25 1026.3 1009.8
15 28.04 З 3
{11}
10 км 8/0
[Ci fib]
+19.1 +0.8 29 +19 +20 1026.0 1009.4 +20.2
18 28.04 ЮЗ 2 10 км 8/0
[Ci fib]
+17.2 +1.3 34 +18 +18 1026.6 1009.9
21 28.04 З 3 10 км 3/0
[Ci fib]
+14.0 +2.1 44 +13 +13 1027.7 1010.8
00 29.04 ЮЗ 1 10 км ясно +13.0 +2.2 48 +13 +13 1028.2 1011.3
03 29.04 З 2 10 км 3/0
[Ci fib]
+12.9 +0.6 43 +12 +14 1029.1 1012.1 +11.7

 

Местоположение метеостанции Самара (Самарская область, Россия): широта 53.25 долгота 50.22 высота над уровнем моря 139 м.

В архиве по умолчанию представлена погода в Самаре за последнюю неделю. Архивные данные за месяц целиком и за предыдущие месяцы, начиная с января 2011 года, Вы можете получить, выбрав интересующий диапазон дат из раскрывающегося списка и нажав кнопку "Ввод!".

Внимание! Время в таблицах - всемирное. Для получения местного времени необходимо прибавить поправку, которая в Самаре равна 4 ч.

Смотрите также архив погоды в соседних городах и на ближайших метеорологических станциях:

Погода в Самаре-Центр (Самарская область, Россия) (8 км)
Погода в Курумоче (Самарская область, Россия) (28 км)
Погода в Аглосе (Самарская область, Россия) (32 км)
Погода в Безенчуке (Самарская область, Россия) (61 км)
Погода в Тольятти (Самарская область, Россия) (69 км)
Погода в Кинель-Черкассах (Самарская область, Россия) (94 км)
Погода в Большая Глушица (Самарская область, Россия) (98 км)
Погода в Авангарде Зерносовхозе (Самарская область, Россия) (100 км)
Погода в Новодевичьем (Самарская область, Россия) (100 км)
Погода в Серноводске (Самарская область, Россия) (102 км)

Пояснения к столбцам:

Ветер - указаны скорость ветра в м/с - средняя за 10 мин, порывы в срок и между сроками (в фигурных скобках) и направление, откуда дует ветер: С - северный, СВ - северо-восточный, В - восточный, ЮВ - юго-восточный, Ю - южный, ЮЗ - юго-западный, З - западный, СЗ - северо-западный.
Видимость - горизонтальная дальность видимости в метрах или километрах. При видимости от 1 до 10 км при отсутствии осадков обычно наблюдается дымка, при ухудшении видимости до 1 км и менее - туман. В сухую погоду видимость может ухудшаться дымом, пылью или мглою.
Явления - указаны атмосферные явления, наблюдавшиеся в срок или в последний час перед сроком; фигурными скобками обозначены явления, наблюдавшиеся между сроками (за 1-3 часа до срока); квадратными скобками обозначены град или гололедные отложения с указанием их диаметра в мм.
Облачность - указаны через наклонную черту общая и нижняя облачность в баллах и высота нижней границы облаков в метрах; квадратными скобками обозначены формы облаков: Ci - перистые, Cs - перисто-слоистые, Cc - перисто-кучевые, Ac - высококучевые, As - высокослоистые, Sc - слоисто-кучевые, Ns - слоисто-дождевые, Cu - кучевые, Cb - кучево-дождевые. Подробнее классификацию облаков см. в Атласе облаков (PDF).
T - Температура воздуха - температура, измеренная на высоте 2 м над землей.
Td - Температура точки росы - температура, при понижении до которой содержащийся в воздухе водяной пар достигнет насыщения.
f - Относительная влажность воздуха - влажноcть воздуха, измеренная на высоте 2 м над землей.
Te - Эффективная температура - температура, которую ощущает одетый по сезону человек в тени. Характеристика душности погоды. При расчете учитывается влияние влажности воздуха и скорости ветра на теплоощущения человека.
Tes - Эффективная температура на солнце - температура, которую ощущает человек, с поправкой на солнечный нагрев. Характеристика знойности погоды. Зависит от высоты солнца над горизонтом, облачности и скорости ветра. Ночью, в пасмурную погоду, а также при ветре 12 м/с и более поправка равна нулю.
P - Атмосферное давление - приведенное к уровню моря атмосферное давление.
Po - Атмосферное давление - измеренное на уровне метеостанции атмосферное давление.
Tmin - Минимальная температура - минимум температуры воздуха на высоте 2 м над землей.
Tmax - Максимальная температура - максимум температуры воздуха на высоте 2 м над землей.
R - Количество осадков - Количество выпавших осадков за период времени, мм. При наведении курсора мыши на число - период времени, за который выпало указанное количество осадков.
R24 - Количество осадков - Количество выпавших осадков за 24 часа, мм.
S - Снежный покров - Высота снежного покрова, см. При наведении курсора мыши на число - состояние снежного покрова и степень покрытия местности в баллах.